User: anonymous   Login
Location: Chavannes
(47.1090°N, 0.2226°W)
Time: 05:26:03
(UTC+00:00)
Language:

COSMO-SKYMED 1 - Orbit

View from above orbital plane
View from above orbital plane
View from above satellite
View from above satellite

Ground track
Ground track

The orbit data is extracted from the following two-line orbital elements,

1 31598U 07023A   22017.78584227 -.00000072  00000-0 -24552-5 0  9997
2 31598  97.8811 203.6299 0001464  95.7519 264.3865 14.82155462790642
Epoch (UTC): 17 January 2022 18:51:36
Eccentricity: 0.0001464
inclination: 97.8811°
perigee height: 621 km
apogee height: 623 km
right ascension of ascending node: 203.6299°
argument of perigee: 95.7519°
revolutions per day: 14.82155462
mean anomaly at epoch: 264.3865°
orbit number at epoch: 79064

The dashed part of the orbit path shows where the satellite is in the earth's shadow,  

DLR